CZ-2D R/B

Last updated on Wed Sep 17 2025 00:02:15 GMT+0000 (Coordinated Universal Time)

1 28738U 05024B 25259.58208718 .00022476 00000+0 44187-3 0 9998 2 28738 97.3707 265.0793 0003347 325.7519 34.3514 15.47289884112756
UTC large
Height (km)
Speed (km/s)
/
Latitude / Longitude
Inclination (degrees)
Orbital Period (minutes)
Azimuth
Elevation
Range (km)
Doppler Factor

Next 0 passes for location: London (51.5072 / 0.1276)

Sorry there are no passes over London.